GW7170 Weather Reports


Display with metric or nautical units.
time (UTC)temp
F
wind
direction
speed
MPH
gust
MPH
rain 1hr
in
rain 24hr
in
rain mn
in
humidity
%
barometer
mb
20260507060135 41 270 7.0 7.0 0.00 0.00 0.00 60 1013.8
20260507055115 41 270 7.0 8.0 0.00 0.00 0.00 60 1013.8
20260507054115 41 270 7.0 8.0 0.00 0.00 0.00 60 1014.8
20260507053115 41 270 7.0 8.0 0.00 0.00 0.00 64 1014.8
20260507052115 41 277 7.0 7.0 0.00 0.00 0.00 62 1014.8
20260507051116 41 270 6.0 7.0 0.00 0.00 0.00 60 1014.8
20260507050115 41 270 7.0 7.0 0.00 0.00 0.00 57 1014.8
20260507045136 42 256 7.0 7.0 0.00 0.00 0.00 59 1014.8
20260507044157 42 260 7.0 7.0 0.00 0.00 0.00 56 1014.8
20260507043115 42 270 7.0 7.0 0.00 0.00 0.00 54 1014.8
20260507042116 43 270 7.0 7.0 0.00 0.00 0.00 52 1014.8
20260507041116 42 270 7.0 7.0 0.00 0.00 0.00 56 1014.8
20260507040115 43 270 7.0 7.0 0.00 0.00 0.00 55 1014.8
20260507035116 43 270 7.0 7.0 0.00 0.00 0.00 54 1014.8
20260507034116 43 270 7.0 7.0 0.00 0.00 0.00 54 1014.8
20260507033117 43 270 7.0 7.0 0.00 0.00 0.00 54 1014.8
20260507032115 43 270 7.0 7.0 0.00 0.00 0.00 53 1014.8
20260507031116 44 270 7.0 7.0 0.00 0.00 0.00 52 1014.8
20260507030117 44 271 7.0 8.0 0.00 0.00 0.00 49 1014.8
20260507025116 45 270 8.0 8.0 0.00 0.00 0.00 47 1014.8
20260507024117 46 272 7.0 8.0 0.00 0.00 0.00 45 1014.8
20260507023135 46 273 8.0 9.0 0.00 0.00 0.00 45 1014.8
20260507022115 46 273 9.0 9.0 0.00 0.00 0.00 44 1014.8
20260507021116 47 274 9.0 9.0 0.00 0.00 0.00 44 1014.8
20260507020115 48 276 9.0 9.0 0.00 0.00 0.00 40 1014.8
20260507015136 49 275 9.0 9.0 0.00 0.00 0.00 38 1014.8
20260507014115 50 275 8.0 9.0 0.00 0.00 0.00 36 1014.8
20260507013135 51 275 7.0 7.0 0.00 0.00 0.00 33 1014.8
20260507012116 52 276 7.0 7.0 0.00 0.00 0.00 32 1014.8
20260507010117 57 275 7.0 8.0 0.00 0.00 0.00 28 1014.8
20260507005156 59 275 7.0 7.0 0.00 0.00 0.00 27 1014.8
20260507004116 59 275 8.0 9.0 0.00 0.00 0.00 26 1014.8
20260507003117 60 277 8.0 10.0 0.00 0.00 0.00 25 1014.8
20260507002117 64 279 6.0 8.0 0.00 0.00 0.00 24 1014.8
20260507001117 64 276 7.0 10.0 0.00 0.00 0.00 23 1014.8
20260507000115 62 276 7.0 9.0 0.00 0.00 0.00 25 1015.5
20260506235116 58 276 7.0 9.0 0.00 0.00 0.00 28 1015.5
20260506234116 58 277 8.0 11.0 0.00 0.00 0.00 27 1015.7
20260506233115 59 278 7.0 9.0 0.00 0.00 0.00 27 1015.9
20260506232116 59 277 8.0 9.0 0.00 0.00 0.00 27 1015.9
20260506231117 58 275 7.0 9.0 0.00 0.00 0.00 27 1015.9
20260506230116 59 279 7.0 9.0 0.00 0.00 0.00 27 1015.9
20260506225116 65 278 10.0 13.0 0.00 0.00 0.00 23 1015.9
20260506224137 67 282 6.0 13.0 0.00 0.00 0.00 24 1015.9
20260506223137 66 279 8.0 14.0 0.00 0.00 0.00 23 1015.9
20260506222116 66 279 7.0 10.0 0.00 0.00 0.00 23 1015.9
20260506221117 63 285 5.0 8.0 0.00 0.00 0.00 24 1015.9
20260506220117 61 283 7.0 10.0 0.00 0.00 0.00 27 1015.9
20260506215136 68 285 5.0 9.0 0.00 0.00 0.00 23 1015.9
20260506214236 61 276 10.0 13.0 0.00 0.00 0.00 25 1015.9
20260506213116 62 279 7.0 9.0 0.00 0.00 0.00 26 1015.9
20260506212117 60 281 8.0 11.0 0.00 0.00 0.00 27 1015.9
20260506211116 65 279 8.0 10.0 0.00 0.00 0.00 25 1015.9
20260506210116 64 285 5.0 8.0 0.00 0.00 0.00 26 1015.9
20260506205117 64 292 6.0 10.0 0.00 0.00 0.00 25 1015.9
20260506204117 66 291 2.0 5.0 0.00 0.00 0.00 25 1015.9
20260506203117 63 279 8.0 9.0 0.00 0.00 0.00 26 1015.9
20260506202118 63 282 7.0 9.0 0.00 0.00 0.00 26 1016.2
20260506201116 57 279 8.0 10.0 0.00 0.00 0.00 29 1016.9
20260506200135 62 281 8.0 10.0 0.00 0.00 0.00 25 1016.9
20260506195117 63 283 6.0 8.0 0.00 0.00 0.00 28 1016.9
20260506194117 62 279 11.0 14.0 0.00 0.00 0.00 27 1016.9
20260506193116 59 278 8.0 11.0 0.00 0.00 0.00 30 1016.9
20260506192117 60 279 8.0 10.0 0.00 0.00 0.00 28 1016.9
20260506191115 62 282 9.0 12.0 0.00 0.00 0.00 28 1016.9
20260506190118 59 280 10.0 13.0 0.00 0.00 0.00 29 1016.9
20260506185115 59 281 8.0 9.0 0.00 0.00 0.00 29 1016.9
20260506184116 59 281 8.0 9.0 0.00 0.00 0.00 29 1016.9
20260506183117 60 278 8.0 10.0 0.00 0.00 0.00 28 1016.9
20260506182115 58 279 7.0 8.0 0.00 0.00 0.00 31 1016.9
20260506181156 57 277 8.0 11.0 0.00 0.00 0.00 30 1016.9
20260506180115 57 280 6.0 7.0 0.00 0.00 0.00 30 1016.9
20260506175116 55 278 8.0 10.0 0.00 0.00 0.00 30 1016.9
20260506174135 57 278 10.0 11.0 0.00 0.00 0.00 29 1017.0
20260506173116 56 279 8.0 11.0 0.00 0.00 0.00 31 1017.9
20260506172137 57 278 9.0 11.0 0.00 0.00 0.00 30 1017.9
20260506171116 56 279 7.0 8.0 0.00 0.00 0.00 31 1017.9
20260506170115 55 279 8.0 9.0 0.00 0.00 0.00 32 1017.9
20260506165116 54 278 9.0 11.0 0.00 0.00 0.00 34 1017.9
20260506164117 55 278 8.0 10.0 0.00 0.00 0.00 33 1017.9
20260506163117 55 279 8.0 9.0 0.00 0.00 0.00 32 1017.9
20260506162120 55 279 7.0 9.0 0.00 0.00 0.00 33 1017.9
20260506161116 55 279 8.0 8.0 0.00 0.00 0.00 33 1017.9
20260506160126 54 278 7.0 8.0 0.00 0.00 0.00 34 1017.9
20260506155116 57 279 8.0 9.0 0.00 0.00 0.00 32 1017.9
20260506154116 54 280 9.0 10.0 0.00 0.00 0.00 33 1017.9
20260506153115 55 280 7.0 8.0 0.00 0.00 0.00 33 1017.9
20260506152116 58 279 10.0 11.0 0.00 0.00 0.00 31 1017.8
20260506151116 53 280 8.0 9.0 0.00 0.00 0.00 33 1017.9
20260506150120 58 282 8.0 10.0 0.00 0.00 0.00 32 1017.9
20260506145137 57 278 7.0 8.0 0.00 0.00 0.00 34 1017.5
20260506144135 57 281 7.0 10.0 0.00 0.00 0.00 34 1017.9
20260506143116 58 281 7.0 8.0 0.00 0.00 0.00 33 1017.9
20260506142115 58 280 8.0 9.0 0.00 0.00 0.00 33 1017.9
20260506141115 57 280 8.0 8.0 0.00 0.00 0.00 34 1016.9
20260506140117 57 278 8.0 9.0 0.00 0.00 0.00 34 1016.9
20260506135116 56 279 8.0 8.0 0.00 0.00 0.00 35 1016.9
20260506134116 54 277 8.0 8.0 0.00 0.00 0.00 37 1016.9
20260506133116 53 275 9.0 9.0 0.00 0.00 0.00 40 1016.9
20260506132117 52 274 9.0 9.0 0.00 0.00 0.00 42 1016.9
20260506131137 51 274 9.0 9.0 0.00 0.00 0.00 44 1016.9
20260506130116 50 273 9.0 9.0 0.00 0.00 0.00 47 1016.9
20260506125115 49 275 9.0 9.0 0.00 0.00 0.00 49 1016.9
20260506124115 47 270 7.0 8.0 0.00 0.00 0.00 52 1016.9
20260506123115 43 268 5.0 6.0 0.00 0.00 0.00 60 1016.9
20260506122115 42 257 5.0 5.0 0.00 0.00 0.00 62 1016.9
20260506121116 39 275 2.0 3.0 0.00 0.00 0.00 67 1016.9
20260506120117 38 216 2.0 2.0 0.00 0.00 0.00 68 1015.9
20260506115115 38 225 2.0 2.0 0.00 0.00 0.00 69 1015.9
20260506114117 38 219 2.0 2.0 0.00 0.00 0.00 69 1015.9
20260506113135 38 158 1.0 2.0 0.00 0.00 0.00 69 1015.9
20260506112156 38 0.0 0.0 0.00 0.00 0.00 70 1015.9
20260506111117 38 284 2.0 2.0 0.00 0.00 0.00 68 1015.9
20260506110117 38 281 2.0 2.0 0.00 0.00 0.00 67 1015.9
20260506105115 39 238 3.0 3.0 0.00 0.00 0.00 66 1014.8
20260506104116 39 243 3.0 3.0 0.00 0.00 0.00 66 1014.8
20260506103117 39 249 4.0 4.0 0.00 0.00 0.00 66 1014.8
20260506102117 40 235 3.0 3.0 0.00 0.00 0.00 65 1014.8
20260506101117 40 237 3.0 3.0 0.00 0.00 0.00 64 1014.8
20260506100115 40 256 4.0 4.0 0.00 0.00 0.00 64 1014.8
20260506095118 40 258 5.0 6.0 0.00 0.00 0.00 64 1014.8
20260506094117 40 257 6.0 6.0 0.00 0.00 0.00 64 1014.8
20260506093116 40 259 6.0 6.0 0.00 0.00 0.00 64 1014.8
20260506092116 40 257 5.0 6.0 0.00 0.00 0.00 64 1014.8
20260506091116 40 250 4.0 4.0 0.00 0.00 0.00 64 1014.8
20260506090115 40 231 2.0 2.0 0.00 0.00 0.00 64 1014.8
20260506085115 40 239 3.0 3.0 0.00 0.00 0.00 64 1014.8
20260506084115 39 235 3.0 3.0 0.00 0.00 0.00 64 1014.8
20260506083115 39 237 3.0 3.0 0.00 0.00 0.00 64 1014.8
20260506082116 39 232 3.0 3.0 0.00 0.00 0.00 63 1013.8
20260506081115 39 234 3.0 3.0 0.00 0.00 0.00 62 1013.8
20260506080116 39 282 2.0 2.0 0.00 0.00 0.00 63 1013.8
20260506073116 38 148 2.0 2.0 0.00 0.00 0.00 64 1013.8
20260506072115 38 279 2.0 2.0 0.00 0.00 0.00 63 1013.8
20260506071116 38 269 2.0 2.0 0.00 0.00 0.00 63 1013.8
20260506070116 38 232 3.0 3.0 0.00 0.00 0.00 61 1013.8
20260506062136 40 257 6.0 6.0 0.00 0.00 0.00 57 1013.8
20260506061116 40 270 6.0 7.0 0.00 0.00 0.00 56 1013.8